FLYING LAPTOP

Satellite information

Favourite Embed

Satellite Type and Status

PAYLOADIN ORBIT

Key statistics

Satellite FLYING LAPTOP at a glance.

Uptime

3026

Days in orbit

Revolutions

≈ 15.0

Per day

Orbit

SSO

Sun Synchronous Orbit

Inclination

97.4

Latest

Satellite identification and parameters

Extended collection of information and parameters for FLYING LAPTOP.

Object identification

Identified? True

Debris? False

Object name: FLYING LAPTOP

International designator: 2017-042G

Object number (NORAD): 42831

Object ID (CCSDS): 42831

Country: GERMANY (GER)

Current information (Y/N): Y

RCS size: MEDIUM

Orbital parameters

Period: 96.033 minutes

Inclination: 97.4203 deg

SMA: 6946.632 km

Apoapsis: 576.0 km

Periapsis: 560.994 km

RAAN: 99.8141 deg

Eccentricy: 0.00108013

Argument of periapsis: 203.0983 deg

Mean anomaly: 156.9757 deg

Mean motion: 14.99482279 rev/day

Mean motion (dot): 0.00003024 rev/day2

B* drag term: 0.00025074277 1/REarth

Two-line elements (TLE)

Creation date: Oct. 26, 2025, 2:54 a.m.

Reference frame: TEME

Reference center: EARTH

Epoch: Oct. 25, 2025, 11:05 p.m. UTC

TLE line 0: 0 FLYING LAPTOP

TLE line 1: 1 42831U 17042G 25298.96187094 .00003024 00000-0 25074-3 0 9992

TLE line 2: 2 42831 97.4203 99.8141 0010801 203.0983 156.9757 14.99482279451333

Live tracking on map

Real-time ground track for satellite FLYING LAPTOP.

In-orbit conjunctions

There are no conjunctions computed for FLYING LAPTOP, at the moment. Check back to stay up to date, as we update our databases every day.

Go to all conjunctions

Associated space launch

Kanopus-V-IK is a small Russian remote sensing satellite for monitoring wildfires. Weighing about 473 kg, it is intended for 5 years of operation in a 510 km sun-synchronous orbit.

FLYING LAPTOP was lifted into orbit during the mission ‘Soyuz-2.1a/Fregat | Kanopus-V-IK’, on board a Soyuz 2.1a/Fregat-M space rocket.

The launch took place on July 14, 2017, 6:36 a.m. from 31/6.

For more information about the launch, click the button.

Launch to space Soyuz-2.1a/Fregat | Kanopus-V-IK
Soyuz-2.1a/Fregat | Kanopus-V-IK

Agency: N/A

Status: Launch was a Partial Failure

Launch date: July 14, 2017, 6:36 a.m. UTC

Rocket: Soyuz 2.1a/Fregat-M

Launch pad: 31/6

Location: Baikonur Cosmodrome, Republic of Kazakhstan

...

Latest news about this satellite

There are no fresh news available about this satellite. Check back as we update our databases every day.


Newsletter sign-up

Weekly statistics, charts and insights to help you stay on top of the space industry.